TimePDT,TemperatureF,Dew PointF,Humidity,Sea Level PressureIn,VisibilityMPH,Wind Direction,Wind SpeedMPH,Gust SpeedMPH,PrecipitationIn,Events,Conditions,WindDirDegrees,DateUTC
12:53 AM,39.0,34.0,82,29.94,10.0,Calm,Calm,-,N/A,,Overcast,0,2012-10-24 07:53:00
1:53 AM,39.0,34.0,82,29.95,10.0,Calm,Calm,-,0.00,Rain,Light Rain,0,2012-10-24 08:53:00
2:53 AM,37.9,33.1,83,29.95,10.0,Calm,Calm,-,0.00,,Overcast,0,2012-10-24 09:53:00
3:53 AM,37.9,34.0,86,29.95,10.0,Calm,Calm,-,N/A,,Overcast,0,2012-10-24 10:53:00
4:53 AM,37.9,35.1,89,29.97,10.0,SW,3.5,-,0.00,Rain,Light Rain,230,2012-10-24 11:53:00
5:39 AM,37.4,35.6,93,29.93,10.0,ESE,4.6,-,0.02,,Mostly Cloudy,110,2012-10-24 12:39:00
5:53 AM,37.9,35.1,89,29.98,10.0,Calm,Calm,-,0.02,,Overcast,0,2012-10-24 12:53:00
6:53 AM,37.9,36.0,93,29.99,10.0,Calm,Calm,-,0.00,Rain,Light Rain,0,2012-10-24 13:53:00
7:53 AM,39.0,36.0,89,30.02,10.0,Calm,Calm,-,0.02,,Overcast,0,2012-10-24 14:53:00
8:22 AM,39.2,37.4,93,29.98,8.0,Calm,Calm,-,0.01,Rain,Light Rain,0,2012-10-24 15:22:00
8:53 AM,39.0,34.0,82,30.05,8.0,Calm,Calm,-,0.05,Rain,Light Rain,0,2012-10-24 15:53:00
9:15 AM,39.2,35.6,87,30.00,10.0,Calm,Calm,-,0.00,Rain,Light Rain,0,2012-10-24 16:15:00
9:51 AM,39.2,35.6,87,30.01,10.0,Calm,Calm,-,0.00,,Overcast,0,2012-10-24 16:51:00
9:53 AM,39.9,36.0,86,30.07,10.0,Calm,Calm,-,0.00,,Overcast,0,2012-10-24 16:53:00
10:17 AM,41.0,35.6,81,30.02,10.0,North,3.5,-,0.00,Rain,Light Rain,350,2012-10-24 17:17:00
10:53 AM,42.1,37.0,82,30.08,10.0,NNW,3.5,-,0.00,Rain,Light Rain,330,2012-10-24 17:53:00
11:26 AM,42.8,35.6,76,30.03,10.0,Calm,Calm,-,0.00,,Overcast,0,2012-10-24 18:26:00
11:53 AM,45.0,37.9,76,30.09,10.0,NNE,4.6,-,0.00,,Overcast,20,2012-10-24 18:53:00
12:32 PM,46.4,37.4,71,30.03,10.0,Calm,Calm,-,N/A,,Overcast,0,2012-10-24 19:32:00
12:41 PM,46.4,37.4,71,30.03,10.0,Calm,Calm,-,N/A,,Overcast,0,2012-10-24 19:41:00
12:53 PM,46.0,37.0,71,30.08,10.0,Calm,Calm,-,N/A,,Overcast,0,2012-10-24 19:53:00
2:53 PM,46.9,37.0,68,30.08,10.0,Variable,3.5,-,0.00,,Mostly Cloudy,0,2012-10-24 21:53:00
3:53 PM,48.9,36.0,61,30.09,10.0,North,5.8,-,N/A,,Overcast,360,2012-10-24 22:53:00
4:53 PM,48.0,35.1,61,30.11,10.0,West,5.8,-,N/A,,Overcast,280,2012-10-24 23:53:00
5:53 PM,46.0,34.0,63,30.13,10.0,WNW,5.8,-,N/A,,Mostly Cloudy,300,2012-10-25 00:53:00
6:53 PM,43.0,35.1,74,30.15,10.0,North,8.1,-,N/A,,Overcast,350,2012-10-25 01:53:00
7:53 PM,43.0,34.0,71,30.17,10.0,North,8.1,-,N/A,,Overcast,10,2012-10-25 02:53:00
8:53 PM,43.0,33.1,68,30.19,10.0,North,8.1,-,N/A,,Overcast,350,2012-10-25 03:53:00
9:53 PM,41.0,34.0,76,30.21,10.0,NNW,4.6,-,N/A,,Overcast,330,2012-10-25 04:53:00
10:53 PM,39.9,34.0,79,30.23,10.0,Calm,Calm,-,N/A,,Overcast,0,2012-10-25 05:53:00
11:53 PM,39.9,35.1,83,30.24,10.0,ENE,3.5,-,N/A,,Overcast,60,2012-10-25 06:53:00